Wind_Speed
6 3 2 2 3 2 3 2 3 4 4 5 6 7 8 10 11 10 9 10 10 9 8 7 9 10 10 9 10 10 10 10 10 10 9 9 8 7 6 6 6 5 4 3 4 4 4 4 4 4 3 2 3 3 3 4 4 4 6 5 5 6 8 9 9 8 9 9 9 10 11 11 11 11 12 13 13 13 13 17 20 21 22 23 23 23
6 3 2 2 2 2 3 3 3 4 4 4 5 6 7 8 10 9 9 10 9 7 8 8 8 9 9 9 10 10 10 10 10 9 9 9 8 7 7 6 5 5 4 4 3 4 4 4 5 4 4 3 3 3 3 4 4 4 6 6 6 7 8 9 9 9 9 9 10 10 11 11 11 11 12 13 14 14 14 16 19 21 22 23 23 23
3 2 2 1 3 2 2 3 3 4 4 4 4 5 6 8 10 9 8 9 8 6 7 8 7 8 9 9 10 11 10 9 9 9 8 8 8 8 8 7 7 6 5 4 3 2 2 3 4 5 5 4 4 3 3 4 4 4 5 6 7 7 8 9 9 9 9 9 10 10 11 12 12 13 14 14 15 15 16 17 18 20 22 23 24 24
1 2 2 4 5 4 3 2 3 4 4 4 4 4 7 8 8 8 9 10 8 5 6 7 6 7 9 10 10 10 10 9 9 9 8 8 8 9 8 8 7 6 6 5 3 2 2 3 5 5 5 6 5 4 4 5 5 5 5 6 7 7 8 8 9 9 9 10 11 11 11 13 13 14 14 15 16 16 17 17 17 19 21 22 23 24
2 1 2 1 3 6 4 3 3 4 4 5 4 4 7 7 5 6 8 9 7 6 6 6 6 8 9 10 10 10 10 10 9 9 9 8 8 9 8 8 7 7 6 5 4 3 3 4 5 6 6 7 7 6 6 6 6 6 6 7 7 7 8 8 8 9 9 10 10 10 11 13 14 14 14 14 15 16 17 17 17 17 18 20 22 23
3 1 3 5 3 3 5 6 6 5 4 4 5 5 6 7 6 6 8 8 6 6 6 6 5 7 10 10 9 11 12 11 11 10 9 8 8 8 8 7 7 7 6 5 5 4 3 4 5 7 8 8 8 7 7 7 7 7 7 7 8 8 9 8 8 9 9 9 9 11 11 13 14 14 15 15 15 16 17 18 19 19 18 19 21 21
3 2 6 6 6 3 4 8 8 7 5 3 5 7 6 6 7 7 8 7 3 2 4 6 5 3 8 10 9 10 11 11 11 11 10 9 9 8 8 8 7 7 6 5 5 4 4 4 4 6 8 9 9 8 7 7 8 8 8 8 8 9 9 9 9 9 9 10 10 12 13 13 14 15 15 17 17 17 18 19 20 20 19 20 20 20
1 7 9 7 5 2 4 8 8 9 6 3 5 7 7 7 7 7 8 6 0 1 3 5 5 3 4 7 8 10 10 10 12 12 11 10 9 9 9 9 8 7 5 4 5 5 5 4 4 6 8 9 9 9 9 8 9 9 9 9 9 9 10 9 9 10 10 11 12 13 14 14 15 15 15 16 17 17 18 18 19 19 19 19 19 19
5 9 9 7 4 2 4 7 9 10 5 2 5 6 6 7 6 6 6 4 1 3 4 5 4 5 2 6 7 8 9 10 11 12 12 12 11 10 10 10 9 6 4 4 5 5 5 5 5 5 8 9 10 10 9 9 9 9 9 9 10 10 10 10 11 11 11 13 13 13 13 14 15 15 15 15 16 17 17 17 18 18 18 18 19 19
8 7 6 4 4 4 5 7 10 10 6 6 7 7 6 6 6 5 5 3 2 5 2 4 4 4 3 7 7 7 7 7 9 10 12 13 12 11 11 11 9 5 4 4 5 5 5 6 5 5 7 8 9 9 9 9 9 9 10 10 11 10 10 11 12 12 13 14 14 14 14 13 14 15 15 15 16 16 16 17 17 17 17 17 18 18
7 5 5 2 1 3 6 6 8 11 9 8 8 8 7 6 5 4 3 3 4 4 2 3 3 4 0 5 6 6 5 5 6 8 10 12 13 13 12 11 9 6 4 4 5 6 6 6 6 6 7 8 9 10 10 9 9 9 10 11 11 11 11 12 13 13 14 14 14 14 14 14 14 15 15 16 16 16 16 16 16 17 17 17 18 18
5 5 6 2 3 3 5 6 7 10 11 9 8 8 7 5 5 4 4 4 5 2 4 2 3 5 3 3 6 6 6 6 5 5 9 12 14 14 13 11 10 8 6 5 5 6 6 6 7 7 7 8 9 9 10 10 10 10 10 11 12 12 13 13 13 14 14 14 15 15 15 15 15 15 16 16 17 17 18 18 18 18 19 19 19 19
4 4 6 3 4 4 6 7 7 9 11 10 9 9 8 5 4 3 3 3 2 3 4 2 3 4 4 2 4 6 7 7 6 5 6 11 13 14 14 13 12 9 7 6 6 6 7 7 7 7 8 8 9 9 10 11 12 11 11 12 13 13 13 14 14 14 15 14 14 15 14 14 15 16 17 17 18 19 20 20 20 20 19 19 19 19
5 5 6 4 4 7 8 7 6 7 10 10 9 9 7 2 1 3 1 1 1 3 3 3 4 4 4 4 4 6 8 8 8 6 5 9 13 14 14 14 13 11 8 7 6 6 7 8 8 8 8 8 9 9 10 11 12 12 12 13 13 14 14 14 15 15 15 14 14 14 14 14 15 16 17 18 19 19 19 18 18 18 17 17 17 17
6 5 5 4 4 7 10 9 6 4 7 9 8 8 6 4 3 2 1 2 1 3 3 4 4 3 2 6 5 7 9 8 7 7 4 6 10 12 14 14 13 12 10 7 7 7 7 8 8 8 8 8 9 10 10 11 12 13 13 14 14 15 15 15 15 16 15 14 13 13 13 13 14 15 15 16 16 15 15 15 15 15 15 15 15 15
8 6 4 5 6 7 9 11 9 5 5 7 7 7 6 4 2 2 2 3 4 2 2 4 4 2 2 5 7 8 9 7 5 7 5 4 7 10 13 15 14 13 11 9 7 7 7 9 9 8 9 9 9 10 11 11 12 13 13 14 15 15 16 16 16 16 14 13 13 12 12 12 12 13 13 13 12 12 12 13 13 13 13 13 14 15
9 7 4 4 6 8 9 10 11 8 4 4 6 7 8 6 1 2 2 1 3 4 2 3 4 3 3 6 8 8 9 9 6 8 8 6 6 8 11 13 13 13 11 9 7 6 7 9 9 9 9 10 10 10 11 12 13 13 14 15 15 15 16 16 17 16 14 13 12 12 11 11 11 11 11 11 10 10 11 11 11 12 12 13 13 15
9 8 5 4 6 7 8 9 11 11 6 4 4 5 7 7 6 5 3 1 4 3 2 2 4 3 4 6 9 9 11 12 10 10 11 8 7 9 10 10 11 12 10 9 8 7 8 10 10 10 10 11 11 12 12 13 13 14 14 15 16 16 17 17 17 16 14 12 12 11 11 10 10 10 10 10 9 9 10 10 10 11 11 12 13 14
10 9 6 6 8 6 7 8 10 12 11 8 5 5 5 5 5 5 4 4 4 2 1 1 2 3 3 4 9 11 12 14 13 13 12 10 9 11 11 9 8 10 9 8 8 8 8 11 11 11 11 12 12 13 13 13 14 14 15 16 17 18 18 19 18 16 14 12 12 11 10 10 9 10 10 9 9 9 9 9 9 9 10 11 12 13
11 11 6 6 7 6 7 10 10 10 11 11 8 6 6 5 4 3 4 5 4 3 2 1 1 2 1 3 8 11 12 14 15 14 13 12 12 12 12 10 9 8 7 6 6 7 9 11 12 12 12 12 13 13 14 14 14 14 15 16 17 18 19 19 18 17 14 13 12 11 11 10 10 10 9 9 8 8 7 7 8 7 7 9 10 11
11 13 9 5 6 7 9 12 13 10 9 10 9 8 7 7 6 4 5 6 6 5 3 2 2 1 4 1 6 9 11 14 14 14 14 13 13 13 11 10 10 9 7 5 5 7 10 12 12 13 13 12 12 13 14 14 15 15 15 16 17 19 20 20 19 17 14 13 13 12 11 10 10 10 10 8 8 7 6 6 5 5 6 7 8 9
11 13 12 8 8 10 10 11 13 14 13 11 9 9 8 7 7 6 6 6 6 7 4 4 4 2 3 2 7 9 10 12 12 13 14 14 14 13 10 8 8 8 7 5 6 8 10 12 13 13 13 12 12 13 14 15 15 15 16 17 18 19 20 20 19 16 14 14 14 13 12 11 10 10 10 9 7 6 5 4 3 3 4 6 8 9
12 12 12 12 10 9 11 12 13 15 16 14 11 9 8 7 8 8 5 4 5 5 5 5 4 1 4 5 9 13 13 13 13 13 14 14 14 12 9 7 6 7 7 5 5 7 10 12 13 13 14 13 13 14 15 15 15 15 16 17 18 19 19 19 18 16 15 15 15 14 13 12 11 10 9 8 7 6 5 3 0 2 5 7 9 10
12 11 11 13 10 9 12 13 12 14 15 14 13 11 10 9 9 8 5 2 4 5 5 6 4 2 3 5 8 16 16 14 15 15 14 15 16 13 10 8 6 6 7 6 5 5 8 11 13 13 14 14 14 14 15 15 15 15 16 17 18 18 19 18 18 17 16 16 16 15 14 13 11 10 9 8 7 6 4 3 2 4 6 8 10 11
11 12 13 12 8 8 9 8 9 13 14 13 12 14 13 11 11 9 6 4 7 6 5 7 6 1 2 4 6 14 18 16 16 16 16 17 17 15 12 10 8 6 6 7 6 4 6 9 11 12 14 14 14 15 16 16 16 16 16 16 17 18 18 18 18 17 17 17 17 16 15 13 12 11 9 8 7 6 5 4 5 6 8 10 11 12
10 12 15 14 10 8 9 8 8 10 13 14 14 15 14 13 13 10 6 7 7 5 4 8 7 4 4 6 6 10 16 18 17 17 17 18 17 16 15 12 9 7 6 7 7 5 5 7 10 12 13 14 14 15 16 16 16 16 17 17 18 19 18 18 18 18 18 18 17 16 15 14 13 11 10 9 9 8 7 7 8 9 10 12 13 14
13 14 16 17 15 11 7 6 7 7 11 14 16 17 15 15 15 12 8 9 5 2 6 8 6 6 7 7 7 8 11 16 18 18 17 18 18 17 16 15 11 9 8 8 8 8 6 6 9 12 13 14 15 15 16 16 16 16 18 19 19 20 19 18 18 18 18 18 17 16 15 15 14 12 11 11 10 10 10 10 10 11 12 14 15 16
14 15 16 18 19 16 11 8 10 10 12 15 16 18 17 15 16 14 11 9 5 6 8 4 3 6 8 7 7 8 9 12 16 19 18 17 18 18 17 17 14 11 10 9 9 9 8 6 8 11 14 14 15 16 17 17 16 17 18 19 20 20 19 18 18 18 19 18 17 16 16 15 14 13 12 12 12 12 12 12 13 14 15 16 16 17
15 14 15 17 19 19 16 14 13 12 12 14 15 16 16 16 16 15 12 10 8 9 8 4 4 7 8 7 7 7 10 11 13 18 20 17 16 17 18 17 16 13 11 11 10 9 9 8 8 10 13 14 15 17 17 17 17 17 18 19 20 19 19 18 18 18 19 18 17 16 16 15 15 15 14 14 14 14 14 14 15 16 17 17 18 19
14 14 16 17 17 18 18 16 14 13 13 14 15 15 14 15 16 15 14 12 10 11 11 9 8 8 8 8 8 9 13 12 11 15 18 17 15 16 17 18 17 15 12 11 11 11 10 9 9 10 12 15 16 17 17 18 18 18 18 18 19 19 19 19 19 19 18 18 17 17 16 16 15 15 15 16 16 15 16 16 17 18 18 19 20 21
12 14 16 16 13 14 18 17 15 15 15 15 17 17 15 16 17 16 16 15 13 13 12 10 10 9 9 9 8 9 13 12 11 13 16 16 15 16 17 18 18 16 13 11 11 11 11 11 11 11 12 15 17 17 18 18 18 18 18 18 18 18 19 19 19 19 18 18 17 17 16 16 16 16 17 17 17 17 17 18 18 19 20 20 22 23
12 13 14 15 13 13 15 17 16 17 15 13 15 18 18 18 17 16 16 16 15 13 12 11 11 9 8 8 8 7 10 12 13 14 15 15 13 12 14 17 19 17 14 12 11 11 12 12 12 11 11 13 17 18 18 18 19 19 18 18 18 19 20 20 19 18 18 18 17 17 17 16 16 17 17 17 18 18 19 19 19 20 21 22 23 25
11 13 13 13 14 13 13 16 16 15 13 11 13 16 18 17 16 15 15 15 15 14 13 13 12 9 9 8 7 5 7 9 13 15 15 13 12 11 11 14 18 18 16 13 12 12 12 12 13 12 11 13 17 18 19 19 19 19 19 18 18 19 20 20 19 18 18 18 18 17 17 17 17 18 18 18 19 19 19 20 21 22 22 24 26 27
10 12 12 12 13 11 12 15 15 13 10 9 12 17 17 16 15 14 13 15 16 15 16 16 13 11 11 9 5 6 7 8 12 15 14 13 13 12 11 11 14 18 18 15 13 13 13 14 14 14 13 14 16 18 20 20 20 20 19 19 19 20 20 20 19 19 18 18 18 18 18 18 18 18 18 18 18 19 20 21 22 23 24 26 28 30
14 12 9 11 13 10 10 14 12 10 9 9 11 14 14 13 14 12 12 15 17 17 18 18 16 15 15 12 8 7 7 8 11 13 14 15 15 15 14 12 11 14 16 15 14 14 15 16 16 17 16 15 16 19 21 22 22 21 20 20 20 20 20 20 20 20 19 19 19 19 19 18 19 19 18 18 19 20 22 23 24 26 27 29 31 33
19 16 10 10 11 9 10 13 10 5 7 11 12 13 12 11 11 10 10 12 13 15 17 17 17 18 17 14 11 9 8 7 9 11 13 15 16 18 19 16 14 14 15 14 13 13 15 16 17 17 17 16 16 19 22 23 23 22 22 22 21 21 20 21 21 21 20 20 20 20 19 19 19 19 19 20 21 23 24 26 27 29 31 32 34 36
20 18 13 11 11 11 12 16 13 6 5 9 12 12 12 11 10 9 9 10 10 10 13 15 18 18 16 13 12 12 11 10 10 12 13 13 14 18 20 20 19 18 18 17 15 13 14 16 17 17 17 17 17 18 21 23 23 22 22 22 21 20 20 20 21 21 20 20 20 20 20 20 21 21 21 22 24 26 27 28 30 32 34 36 37 38
20 20 17 14 13 14 15 16 13 8 7 10 12 12 12 11 9 8 8 9 9 9 9 12 15 15 14 13 13 13 14 12 10 12 14 12 12 14 18 22 21 19 20 20 18 15 14 15 18 19 18 18 17 18 21 23 23 22 22 22 21 20 20 20 20 20 19 19 20 21 21 21 23 23 24 25 28 29 30 32 34 37 38 40 39 38
20 20 20 16 12 12 13 14 12 7 7 13 15 14 13 10 8 8 8 9 11 11 10 11 13 13 12 12 13 14 15 13 10 11 12 11 10 11 15 20 23 22 21 21 20 17 14 14 16 20 20 19 18 18 20 22 22 21 22 21 20 20 20 19 19 19 19 20 21 22 23 24 26 26 27 30 33 34 35 37 39 40 41 41 40 39
20 18 19 17 13 11 10 11 11 7 6 11 13 11 10 9 9 9 8 10 13 13 12 12 13 14 13 13 14 15 16 15 14 14 15 12 10 11 13 17 21 22 23 23 22 20 17 14 14 17 20 21 20 19 20 21 21 21 21 21 21 21 21 21 21 23 25 25 25 26 27 29 31 32 34 37 39 40 41 41 42 42 43 41 39 39
18 19 21 20 18 19 18 16 13 10 8 9 10 9 8 8 11 11 8 9 12 14 13 14 13 14 15 15 16 16 18 19 18 18 17 14 12 12 14 16 18 20 23 24 24 22 19 16 15 16 19 22 22 22 23 23 23 23 23 24 25 24 25 27 28 29 30 30 30 31 33 35 37 39 41 42 43 44 43 42 43 44 43 40 38 36
12 16 20 20 16 18 22 21 16 16 18 17 14 13 11 8 10 12 11 13 16 16 16 17 17 16 16 16 16 16 17 19 20 20 18 15 14 14 15 16 17 18 21 23 24 23 22 20 19 18 19 22 24 26 26 25 26 27 27 28 29 29 30 31 31 32 33 33 34 36 37 39 41 42 43 44 45 44 42 43 44 43 41 39 34 30
7 9 13 16 14 14 17 15 11 16 28 30 24 20 19 15 13 14 15 17 18 18 18 18 18 18 17 16 15 16 16 17 19 20 20 19 18 18 18 18 19 20 21 23 25 25 24 24 23 22 22 24 26 28 29 29 29 30 31 31 31 31 32 33 34 34 35 37 39 40 41 42 44 43 43 45 45 43 42 43 42 39 37 34 28 24
8 9 7 6 8 10 11 11 12 20 29 30 26 25 25 23 20 19 19 19 18 18 18 18 18 18 16 15 14 14 14 15 17 18 20 21 22 22 22 21 22 22 23 25 26 27 27 27 27 26 26 27 28 30 31 32 32 32 33 33 33 33 34 35 36 37 39 41 44 44 44 45 45 44 44 44 44 43 43 42 38 35 32 27 23 24
11 12 10 6 6 9 8 8 13 20 23 24 25 26 25 23 21 20 20 20 18 16 15 15 16 15 14 12 12 12 12 13 15 16 18 19 21 22 22 23 24 25 26 27 28 29 29 30 30 31 31 30 30 31 31 31 32 32 32 32 34 35 35 35 35 36 39 41 42 44 45 46 45 43 40 38 37 37 37 37 35 33 30 25 23 24
13 13 13 10 9 11 10 7 9 15 19 21 22 23 23 22 21 21 21 20 19 16 14 14 13 13 12 11 11 11 11 11 12 13 15 16 18 20 21 22 24 25 25 26 27 27 28 29 31 33 35 35 34 33 33 31 30 30 32 32 33 35 37 38 39 40 40 38 36 37 39 41 40 37 33 30 31 31 32 34 34 29 25 24 24 22
12 13 15 15 14 13 11 10 12 15 16 17 18 20 21 22 22 22 21 21 20 18 16 14 12 12 12 11 11 11 11 10 11 12 13 14 16 18 18 19 21 23 25 26 24 22 22 23 24 26 30 34 36 38 38 35 30 29 31 33 33 35 38 40 41 43 44 43 41 40 39 37 36 33 29 28 28 29 31 33 31 26 24 24 23 22
9 10 11 12 15 15 13 13 16 16 15 15 16 17 17 19 22 22 21 20 19 18 16 15 13 12 12 12 12 11 9 8 8 9 11 12 14 16 17 18 20 23 25 26 25 22 18 17 18 17 18 23 28 33 37 36 31 29 32 34 34 34 35 35 36 39 41 42 42 40 38 36 33 30 28 27 28 29 31 30 28 27 26 24 22 22
9 9 9 6 7 11 12 13 14 14 13 13 14 15 14 14 15 14 13 14 14 13 13 13 12 12 13 14 14 13 11 11 12 12 13 15 17 18 20 22 23 25 26 27 29 28 22 20 22 22 21 23 26 26 27 29 30 32 36 37 36 35 35 34 35 36 36 34 32 31 32 33 31 27 26 27 27 27 28 27 27 27 26 23 22 23
7 8 8 7 7 8 8 6 6 7 7 8 9 9 8 6 6 5 6 8 10 10 10 11 12 12 12 13 13 13 13 14 16 17 17 18 19 21 23 24 24 25 25 25 27 29 27 26 28 30 30 31 30 27 26 29 32 35 37 37 36 34 33 32 30 29 28 27 27 27 29 29 26 24 24 25 25 25 27 28 28 27 25 23 23 24
7 7 8 8 8 9 10 10 9 9 8 8 9 9 8 8 8 8 8 9 11 12 13 13 13 13 13 13 13 13 11 12 13 14 14 15 17 18 19 20 19 19 20 19 20 22 23 23 24 24 25 25 25 25 26 28 29 30 30 29 27 25 23 22 22 21 20 21 21 22 22 22 20 20 22 24 25 26 28 28 28 26 25 25 25 28
Wind_Direction
323 284 240 165 154 146 178 173 118 125 122 115 111 105 107 105 104 109 118 138 149 137 129 134 135 140 149 155 162 162 155 153 161 170 175 179 181 172 165 164 162 164 170 170 165 165 164 174 186 174 173 176 157 159 146 128 127 128 124 118 105 92 86 86 84 83 84 79 72 69 66 65 65 62 59 60 61 59 57 60 62 62 63 65 65 66
332 266 215 147 183 209 182 172 145 137 134 136 127 111 111 108 107 115 126 139 150 140 130 140 144 148 155 160 167 168 162 160 164 170 175 181 187 187 185 179 169 170 182 188 182 172 168 176 181 171 173 171 157 161 153 142 138 131 127 120 107 93 88 90 92 93 92 92 87 82 80 77 76 76 72 67 65 62 62 63 64 63 63 65 66 66
317 205 190 204 220 230 193 174 137 135 154 149 139 130 119 116 118 125 137 143 149 142 138 155 158 153 162 166 169 171 171 173 175 177 180 187 193 196 196 192 186 185 188 190 190 185 182 185 179 175 176 168 164 172 165 155 145 134 128 121 113 102 92 90 94 96 95 96 95 90 91 90 87 84 79 74 70 67 65 66 66 65 64 65 66 67
219 163 222 236 224 231 243 218 155 144 167 163 160 145 127 136 137 129 149 161 161 151 145 165 171 158 166 173 178 182 179 183 186 184 186 191 191 191 193 197 196 193 194 195 198 200 197 194 185 180 178 171 170 178 175 167 154 142 135 126 119 108 100 97 98 100 97 92 88 86 90 92 88 83 79 75 73 70 70 71 70 67 65 64 64 65
257 269 292 284 229 224 227 232 190 164 168 175 181 153 135 157 154 125 150 164 173 181 168 185 191 171 178 184 185 191 189 188 192 190 188 189 188 185 189 200 199 190 191 192 196 205 206 202 189 179 182 176 171 179 182 174 158 145 142 133 122 112 108 107 104 101 97 90 88 88 87 87 87 86 83 80 77 76 74 73 72 70 67 65 63 62
229 265 9 22 359 248 216 217 207 185 171 173 190 185 161 166 163 143 153 160 179 192 188 220 215 159 175 194 189 188 191 191 194 195 193 190 190 190 190 197 193 183 186 187 186 192 194 195 183 178 183 174 168 178 181 173 159 147 144 136 126 119 115 113 111 106 101 97 95 96 95 93 91 89 87 85 83 80 77 75 74 71 69 67 63 61
209 326 1 3 357 350 227 217 209 201 189 159 177 189 180 173 172 165 170 177 176 142 174 233 265 135 162 184 186 188 192 197 199 197 196 195 194 194 193 193 189 180 182 180 174 177 176 172 172 177 178 169 168 174 175 170 159 150 148 141 131 124 120 118 117 112 106 102 101 102 102 100 96 93 90 88 86 84 81 78 76 72 69 67 64 62
304 337 347 352 358 354 229 221 216 213 202 142 159 182 179 178 180 174 187 202 189 52 195 220 270 284 157 159 180 192 195 201 204 200 197 197 196 193 190 189 186 172 161 163 168 169 161 153 163 171 169 166 170 172 171 169 159 153 152 144 136 130 127 127 123 116 110 108 108 107 105 101 99 97 93 91 89 87 84 80 77 74 72 69 67 65
322 325 332 342 341 290 224 214 213 210 210 183 174 171 168 178 186 186 198 208 219 248 214 170 228 266 136 138 173 191 199 207 209 207 202 199 197 193 187 187 187 170 142 144 161 161 149 147 157 163 165 168 172 173 169 163 157 154 151 144 138 133 131 131 127 119 114 113 113 111 107 102 100 98 94 92 90 87 83 79 77 74 72 69 67 64
299 309 320 325 310 273 214 199 196 189 199 215 190 164 159 170 177 196 216 203 204 247 218 140 213 267 103 135 164 173 192 205 202 203 202 199 198 193 187 187 189 179 153 147 156 155 146 147 152 156 163 168 169 167 162 159 157 154 150 144 139 137 135 133 128 122 119 118 118 114 110 106 102 100 97 94 90 86 82 79 76 73 70 67 64 61
292 313 334 326 249 212 186 186 186 183 192 200 183 162 154 159 168 196 227 212 214 222 156 131 217 259 107 128 149 156 162 167 166 181 192 194 195 193 191 190 190 189 174 158 157 156 149 149 155 157 159 162 164 164 160 158 157 154 151 146 143 142 140 136 129 125 124 124 122 118 114 111 107 103 99 95 91 86 84 81 77 74 71 69 66 63
278 307 320 288 183 173 175 185 193 195 193 183 178 174 165 166 184 196 184 205 235 158 109 122 186 231 257 113 129 148 151 152 142 154 181 189 192 193 193 190 190 197 188 170 165 163 157 152 156 160 159 158 160 162 161 158 157 157 155 150 148 145 142 138 134 130 131 130 127 124 119 113 108 103 97 93 90 86 84 82 79 77 74 72 70 67
242 277 291 251 183 179 172 173 187 200 200 194 194 203 205 188 183 213 182 190 255 87 113 159 150 202 250 154 146 158 161 171 162 148 168 181 188 192 194 194 195 200 192 177 177 173 166 158 160 166 164 160 159 160 162 160 158 159 158 156 153 149 145 142 139 137 137 135 132 128 122 114 108 103 97 94 92 89 86 83 81 78 76 73 70 66
232 243 259 241 204 198 181 171 184 203 208 208 207 214 229 238 191 228 228 176 55 87 122 175 180 220 221 171 172 175 180 191 188 182 171 173 183 188 192 198 197 197 192 182 183 183 174 167 167 170 169 165 162 160 162 162 162 162 162 160 157 153 151 147 144 143 142 139 136 131 124 117 111 106 102 98 95 91 87 84 82 79 75 71 67 63
245 236 212 198 209 209 197 191 195 207 208 212 220 229 250 283 275 254 8 17 29 76 114 162 200 243 157 142 160 175 184 192 192 198 195 176 182 186 191 196 192 191 195 191 187 189 183 176 175 174 172 171 168 163 163 165 166 166 164 164 162 159 156 152 150 149 147 143 139 135 127 120 115 111 105 101 95 89 85 84 82 77 72 66 61 58
248 247 213 216 222 217 213 206 208 220 213 213 220 226 236 256 289 313 343 352 334 328 146 170 214 270 109 156 169 170 175 177 184 195 193 179 177 179 187 190 186 188 196 197 194 194 188 182 181 179 175 176 176 171 168 168 170 169 168 168 167 163 160 158 155 152 151 148 142 139 133 125 120 115 108 101 94 89 85 83 80 74 67 61 57 54
239 231 211 244 236 223 225 218 215 214 200 217 219 216 231 237 231 280 268 221 271 277 159 179 232 211 190 185 173 168 170 172 184 184 177 181 178 170 174 178 180 186 192 196 199 200 193 187 187 186 181 178 180 179 174 174 174 173 173 172 170 167 165 163 160 157 156 152 148 145 138 130 126 120 111 104 98 95 90 84 78 70 63 60 57 56
248 232 217 262 266 245 234 223 217 210 199 222 229 219 236 237 223 243 270 223 245 265 144 209 267 223 199 177 168 177 178 174 179 175 175 186 186 177 173 171 176 184 191 198 206 209 198 191 190 189 187 182 182 185 183 180 179 178 177 175 173 172 170 168 165 163 161 158 154 150 144 137 131 125 118 112 108 102 96 87 79 73 68 64 59 54
246 241 228 238 253 252 233 221 214 212 214 224 239 235 227 236 224 214 246 272 267 276 169 201 276 246 226 179 174 185 183 179 180 177 180 187 184 183 187 187 186 188 192 199 208 213 200 194 193 192 192 189 187 189 188 185 183 182 181 178 176 175 174 173 172 168 166 164 162 156 150 144 136 132 128 122 117 111 104 95 88 81 72 62 53 48
232 237 229 215 234 240 213 211 210 208 216 225 237 233 215 238 256 211 239 277 289 293 284 292 266 201 139 157 182 186 183 183 183 182 183 185 182 183 189 193 189 182 184 191 204 212 205 199 197 195 196 194 192 193 192 188 186 185 185 183 180 179 178 178 177 174 171 171 170 165 158 151 144 142 139 133 126 121 114 106 96 81 62 47 40 38
221 234 238 207 216 223 206 210 217 213 216 221 225 222 210 220 238 242 244 254 278 293 297 307 289 66 59 127 192 184 185 186 185 185 184 183 184 184 182 181 174 167 174 192 206 213 213 207 200 197 198 198 197 197 193 190 189 188 188 186 183 182 182 183 182 179 177 178 177 173 166 157 152 152 149 143 139 133 126 114 95 67 40 27 22 22
212 225 234 220 217 223 216 217 222 222 221 219 222 228 226 216 222 243 232 207 241 278 295 309 300 6 21 274 195 182 183 184 185 188 185 183 185 186 179 169 166 166 172 192 212 217 215 211 206 202 199 200 201 198 194 193 192 191 190 188 187 186 185 186 186 185 184 185 184 180 173 166 161 161 157 154 152 147 141 129 97 39 10 0 359 3
219 224 232 234 233 229 230 232 233 231 226 220 222 226 227 223 227 252 261 190 209 250 263 283 283 286 326 285 211 196 190 185 188 189 187 188 190 190 186 177 173 178 182 194 217 224 219 213 209 205 201 201 202 198 195 194 193 193 192 192 191 190 189 188 189 191 191 190 190 187 180 175 172 171 167 166 167 164 163 161 121 338 337 338 341 346
223 221 226 234 231 224 238 247 243 236 227 220 221 220 219 219 224 245 269 254 232 240 248 265 265 247 304 294 219 204 201 196 194 192 187 189 196 199 195 190 188 189 196 203 214 226 226 218 212 208 203 201 201 198 195 194 193 195 196 196 195 193 192 192 194 196 196 195 195 192 187 184 182 182 180 180 182 184 193 215 270 303 313 320 325 331
220 217 221 226 218 210 229 241 238 234 228 223 222 222 219 213 214 222 226 239 249 245 252 277 286 287 300 298 230 207 208 206 202 199 193 194 204 208 204 202 202 202 209 212 213 232 238 225 217 214 208 205 203 200 197 195 195 196 198 199 198 197 197 197 199 200 200 200 200 197 194 192 192 194 194 196 200 205 219 242 269 289 300 307 313 320
221 217 219 221 220 219 215 212 227 229 220 221 224 221 217 210 206 205 212 240 242 215 229 267 286 315 312 292 266 225 217 214 210 209 203 202 208 211 210 210 210 215 226 219 216 233 248 233 221 215 212 211 207 203 200 199 198 197 198 200 202 202 202 201 201 202 203 205 205 203 202 201 201 203 204 208 213 220 232 250 268 282 292 300 306 313
224 222 221 222 231 245 242 223 238 231 213 222 229 221 213 209 204 201 226 252 250 238 254 252 262 305 316 297 272 251 234 223 218 215 211 210 213 214 215 216 215 220 230 225 222 231 245 245 231 221 216 214 211 208 204 203 201 200 201 203 205 206 205 203 203 205 207 209 209 210 209 208 210 211 213 217 223 230 240 253 266 278 289 295 301 307
226 227 225 223 230 247 262 255 254 245 224 225 229 221 212 208 204 204 226 250 251 264 272 247 221 288 309 306 279 258 243 231 221 217 214 214 217 218 220 222 223 226 232 232 230 231 237 247 244 232 221 215 213 212 209 206 204 205 205 207 209 211 209 207 207 209 211 212 214 215 214 215 217 218 220 225 231 238 246 256 267 277 285 290 295 301
223 231 232 229 232 242 250 252 251 248 233 222 220 219 214 210 208 209 223 240 239 250 275 300 287 289 306 308 290 257 234 225 221 218 214 214 218 221 224 228 230 232 233 233 231 229 231 241 252 244 228 219 216 214 213 211 208 209 210 212 214 215 213 212 213 214 215 217 218 220 221 221 222 224 227 232 238 244 251 259 268 275 280 285 290 295
224 231 233 234 239 242 246 248 244 237 228 217 214 216 214 211 211 213 222 229 228 240 259 277 284 288 297 297 283 248 225 215 218 218 211 212 218 222 225 228 231 234 233 229 226 224 228 237 252 252 236 225 219 216 216 216 214 213 215 217 219 218 216 216 218 219 221 222 223 225 227 229 229 232 235 238 242 248 254 261 267 271 276 282 287 291
223 230 234 231 234 240 241 241 233 222 218 215 214 213 207 207 212 216 224 229 231 242 254 269 282 286 287 295 290 253 226 214 216 215 209 213 222 228 230 229 230 232 230 226 224 223 227 236 248 257 250 234 224 219 218 219 218 217 218 221 223 222 221 221 221 223 224 226 228 230 232 235 236 239 240 241 244 249 255 261 266 272 277 282 286 289
219 229 234 226 225 230 229 228 223 216 215 214 214 213 210 211 217 223 229 235 239 247 257 268 276 278 278 295 304 269 235 221 217 216 216 219 225 234 238 234 231 229 226 227 229 227 230 237 246 258 261 246 232 223 218 219 220 218 219 223 225 224 225 224 224 226 227 229 231 233 234 236 238 240 240 241 245 251 257 263 269 274 278 282 286 289
222 228 228 220 224 225 217 215 212 208 213 217 217 221 222 221 228 236 243 248 250 250 255 260 268 276 275 286 311 293 252 227 217 219 224 228 235 246 247 238 232 227 225 229 233 234 239 246 251 260 265 254 240 229 221 219 219 219 219 223 226 227 228 227 228 231 231 232 233 233 235 236 236 238 240 242 248 254 260 265 270 274 278 282 285 288
239 234 226 219 224 218 200 202 206 209 221 223 217 223 228 229 235 242 246 251 252 249 248 251 257 266 265 267 286 283 260 231 218 222 226 230 240 249 249 241 231 225 225 230 235 239 245 249 252 257 260 256 242 231 224 220 218 217 218 222 226 228 229 229 232 233 234 235 234 233 234 234 235 237 240 245 251 256 261 266 270 274 279 282 285 288
243 240 228 221 226 220 194 196 208 220 224 214 209 216 222 226 231 235 241 248 250 249 249 248 248 251 253 250 247 248 243 232 227 229 231 232 235 236 235 234 230 225 227 232 238 243 246 247 249 252 257 256 244 232 226 221 218 215 216 219 224 226 227 229 231 233 234 234 234 234 234 233 236 239 243 248 254 259 263 267 272 276 279 282 285 288
236 236 231 222 222 220 208 207 211 216 212 212 216 218 215 216 218 220 236 249 252 251 250 246 243 245 247 242 236 232 229 228 231 235 239 240 237 232 226 222 222 224 226 231 239 246 247 247 247 249 253 254 246 237 230 224 219 216 215 218 222 225 227 229 232 234 234 234 235 235 235 237 241 244 248 253 257 262 266 270 274 277 279 282 284 285
230 229 229 226 219 220 229 227 217 198 197 214 216 207 200 204 204 204 222 240 245 246 245 240 239 242 241 236 231 228 227 228 233 244 252 254 249 241 229 221 221 223 222 225 233 243 247 244 240 243 249 250 245 240 233 227 223 219 218 221 224 226 228 231 234 236 236 237 238 240 241 244 246 249 253 257 261 264 268 272 275 277 278 280 281 282
235 233 231 233 230 229 237 236 221 202 197 212 214 203 195 198 200 198 214 235 238 235 231 230 232 233 230 230 228 225 228 231 232 242 253 259 257 248 233 223 222 223 225 229 235 242 249 243 232 231 237 241 240 236 232 228 225 222 222 225 227 228 230 233 236 239 241 242 243 245 248 250 253 256 258 261 265 267 269 272 274 275 276 277 279 281
238 235 228 226 226 228 237 243 238 223 200 202 204 201 200 203 202 200 213 231 237 237 233 230 231 228 225 229 230 225 227 231 231 235 247 258 257 246 233 224 221 222 227 233 237 240 247 248 237 230 230 232 234 232 228 226 225 224 226 229 230 232 235 239 242 246 249 249 250 252 254 255 258 260 262 265 266 267 269 271 272 273 275 276 278 279
233 230 224 220 219 224 240 253 256 257 223 207 204 205 209 207 202 208 221 225 228 236 240 239 239 237 234 235 234 227 224 227 230 231 238 251 253 242 232 225 224 225 227 231 234 237 241 245 242 236 230 226 225 224 222 222 225 229 232 234 236 239 242 245 247 248 250 252 254 255 258 259 260 261 262 263 264 266 268 269 270 272 273 273 276 278
225 226 228 228 229 232 239 248 253 257 247 231 226 233 235 219 212 219 222 214 221 234 244 248 250 248 243 240 238 233 229 230 233 234 238 245 244 234 230 230 231 230 228 228 231 235 237 239 239 238 234 228 222 220 220 222 226 230 234 237 239 241 244 245 246 247 250 253 256 258 260 261 261 262 262 262 264 267 269 272 275 277 275 276 281 283
228 226 227 224 219 223 227 230 237 249 252 252 252 251 250 242 232 229 218 213 225 239 249 256 260 257 253 247 241 236 233 233 237 241 242 241 233 227 229 232 233 232 229 228 231 234 236 236 235 235 236 233 227 224 223 226 230 233 236 238 241 244 247 249 251 253 254 256 256 257 258 259 260 262 264 267 267 268 271 275 278 276 275 280 285 283
249 241 234 223 211 214 218 213 219 246 251 252 253 250 244 242 242 238 227 222 230 240 248 255 259 258 255 253 248 243 239 237 238 242 244 241 236 233 234 234 233 233 232 232 234 236 236 235 234 233 233 233 233 231 230 231 234 238 240 242 245 248 251 254 257 259 260 260 259 258 257 257 259 261 265 270 271 271 273 276 274 271 273 276 277 273
240 237 232 222 222 226 217 207 221 241 246 245 242 238 238 241 244 243 236 229 230 235 240 244 249 250 250 249 249 248 245 242 241 243 245 245 243 243 243 240 237 235 234 235 236 238 238 237 234 232 231 232 233 234 236 237 239 241 244 246 248 251 253 256 257 258 260 261 263 264 263 262 262 263 265 269 272 273 275 273 270 269 272 271 271 276
236 231 217 200 229 237 222 207 222 230 231 229 227 227 231 236 239 236 231 226 223 222 224 227 232 237 239 240 243 244 245 245 243 243 245 247 246 247 247 246 243 240 239 240 241 243 244 242 238 234 232 231 232 234 237 239 241 244 247 249 251 252 253 255 256 257 258 260 264 268 269 267 267 268 270 273 275 276 275 272 268 269 272 273 277 282
239 234 222 209 214 226 222 206 203 209 212 215 218 219 220 220 220 220 221 221 219 214 211 211 214 219 222 226 231 233 236 240 240 241 245 246 245 243 242 242 242 240 239 241 242 242 244 244 242 237 232 230 231 233 234 235 239 245 250 252 254 255 256 258 259 260 262 263 264 266 266 264 264 269 275 279 280 278 274 269 267 268 273 279 280 279
245 233 223 212 204 207 211 206 202 203 206 208 210 211 211 210 211 211 212 215 216 213 210 205 204 210 215 216 219 225 232 240 242 245 250 252 251 249 245 243 241 239 238 238 237 236 239 240 238 236 234 234 234 237 240 243 247 253 258 259 261 262 262 264 266 266 266 266 266 266 265 262 261 265 272 277 278 274 268 264 264 269 277 279 278 276
257 247 238 220 204 201 201 200 200 198 196 198 204 207 208 210 213 212 212 214 215 213 211 209 207 212 216 217 217 216 220 236 252 260 266 266 265 262 260 258 253 247 244 242 238 234 233 237 241 242 242 244 247 245 243 246 254 263 269 272 273 272 271 272 272 270 269 269 270 271 271 268 264 266 271 272 271 267 262 261 267 276 279 277 274 272
255 258 262 255 225 215 212 205 201 202 204 212 218 216 215 222 227 227 229 235 236 234 235 238 243 245 243 245 246 241 239 252 266 273 279 282 282 280 278 276 271 266 264 262 257 251 248 256 264 261 255 263 274 270 255 253 262 269 272 275 278 278 277 276 275 275 275 274 273 270 267 265 265 269 272 268 263 262 264 268 275 279 277 272 268 265
254 247 249 259 265 263 260 254 240 233 237 245 243 235 238 261 288 318 318 299 295 295 291 296 309 308 297 292 288 279 273 273 275 278 282 284 283 283 283 283 280 276 273 272 268 265 265 270 273 269 265 270 279 280 269 265 268 269 269 272 275 276 277 278 277 277 276 272 267 263 262 266 272 278 276 271 269 272 276 278 280 277 270 262 259 259
267 259 257 259 261 267 276 284 287 285 285 284 280 281 293 305 312 321 322 313 310 311 308 309 313 314 314 315 313 308 303 295 289 290 292 287 281 281 282 283 282 279 275 270 266 267 270 272 272 272 272 272 272 270 267 267 268 268 269 272 273 274 275 275 274 273 270 265 262 262 266 274 283 285 281 278 281 284 284 283 280 273 264 258 257 259
Height
3139 3140 3139 3139 3138 3138 3138 3138 3138 3138 3138 3138 3137 3136 3136 3137 3138 3139 3140 3140 3139 3140 3142 3142 3142 3143 3143 3143 3143 3142 3142 3142 3143 3144 3144 3144 3144 3144 3144 3144 3144 3144 3144 3144 3144 3144 3144 3144 3144 3143 3143 3143 3143 3143 3142 3142 3143 3142 3142 3142 3142 3142 3141 3141 3141 3141 3142 3141 3141 3141 3140 3140 3140 3139 3138 3137 3136 3136 3135 3133 3132 3131 3130 3130 3129 3128
3138 3139 3139 3138 3138 3138 3138 3138 3138 3138 3138 3138 3138 3137 3137 3137 3138 3140 3140 3140 3139 3140 3142 3142 3142 3143 3143 3144 3144 3143 3142 3143 3143 3144 3144 3144 3144 3144 3144 3144 3144 3144 3144 3144 3144 3144 3143 3143 3143 3143 3143 3143 3143 3143 3143 3143 3143 3143 3142 3142 3142 3142 3142 3142 3142 3142 3142 3142 3142 3142 3142 3141 3140 3140 3140 3139 3138 3137 3136 3135 3134 3133 3132 3132 3130 3130
3138 3138 3138 3138 3137 3137 3136 3136 3137 3138 3138 3138 3138 3137 3137 3138 3139 3140 3140 3140 3140 3140 3142 3142 3142 3142 3143 3143 3143 3143 3143 3144 3144 3144 3144 3144 3144 3145 3145 3144 3144 3144 3144 3144 3144 3143 3142 3142 3142 3143 3143 3143 3143 3143 3143 3143 3143 3143 3143 3142 3143 3143 3143 3143 3143 3143 3143 3143 3142 3142 3142 3142 3142 3141 3140 3140 3139 3138 3138 3136 3136 3135 3134 3134 3132 3132
3137 3138 3138 3136 3136 3136 3136 3136 3136 3138 3138 3138 3138 3136 3137 3138 3138 3139 3140 3140 3140 3140 3141 3142 3141 3142 3142 3143 3143 3143 3143 3144 3144 3144 3144 3144 3144 3145 3145 3144 3144 3144 3144 3144 3143 3142 3142 3142 3142 3142 3143 3143 3143 3143 3143 3143 3143 3143 3143 3143 3143 3143 3143 3143 3144 3144 3144 3143 3143 3143 3142 3142 3142 3142 3142 3141 3140 3140 3139 3138 3138 3137 3137 3136 3134 3134
3137 3137 3136 3135 3135 3136 3136 3136 3136 3138 3138 3138 3138 3136 3137 3138 3138 3139 3140 3140 3140 3140 3140 3140 3139 3140 3141 3142 3142 3142 3143 3143 3144 3144 3144 3144 3144 3144 3144 3144 3143 3143 3143 3143 3142 3142 3142 3141 3142 3142 3142 3142 3143 3143 3143 3143 3143 3144 3144 3144 3144 3144 3144 3144 3144 3144 3144 3144 3144 3144 3144 3144 3144 3143 3143 3142 3142 3142 3140 3140 3139 3139 3138 3138 3137 3136
3137 3136 3135 3135 3135 3135 3135 3136 3136 3137 3137 3137 3138 3137 3137 3138 3138 3139 3140 3140 3140 3139 3139 3139 3136 3136 3139 3140 3140 3142 3142 3142 3143 3143 3143 3143 3144 3144 3144 3144 3143 3142 3142 3142 3142 3141 3141 3141 3141 3142 3142 3142 3143 3143 3143 3143 3143 3144 3144 3144 3144 3144 3145 3145 3144 3144 3144 3144 3144 3145 3145 3145 3145 3144 3144 3143 3143 3142 3142 3141 3140 3140 3140 3139 3139 3138
3136 3135 3134 3134 3134 3134 3134 3136 3136 3136 3136 3136 3136 3137 3137 3138 3138 3139 3139 3138 3137 3136 3138 3138 3135 3133 3136 3138 3139 3140 3140 3141 3142 3142 3142 3143 3143 3144 3144 3144 3143 3142 3142 3142 3141 3141 3141 3140 3141 3141 3142 3142 3143 3143 3144 3143 3143 3144 3144 3144 3144 3145 3145 3145 3145 3145 3145 3145 3145 3146 3146 3146 3146 3146 3145 3144 3144 3144 3143 3143 3142 3142 3142 3141 3141 3140
3134 3134 3133 3133 3133 3134 3134 3134 3135 3135 3134 3134 3135 3137 3137 3137 3138 3138 3139 3138 3137 3137 3137 3137 3136 3133 3132 3135 3138 3139 3140 3140 3140 3141 3142 3142 3143 3143 3143 3144 3143 3142 3142 3141 3141 3141 3140 3140 3141 3141 3142 3142 3142 3143 3143 3143 3143 3144 3144 3144 3145 3145 3146 3146 3146 3146 3146 3146 3146 3146 3146 3147 3147 3147 3146 3146 3146 3145 3145 3144 3144 3144 3143 3143 3142 3142
3133 3133 3132 3132 3132 3133 3134 3133 3133 3134 3134 3134 3135 3136 3136 3137 3138 3138 3138 3138 3138 3138 3135 3136 3137 3133 3130 3134 3137 3138 3138 3139 3139 3140 3140 3141 3142 3142 3143 3143 3143 3142 3141 3141 3141 3140 3140 3140 3141 3141 3142 3142 3142 3143 3143 3144 3144 3144 3144 3145 3145 3146 3146 3146 3146 3146 3146 3147 3147 3147 3148 3148 3148 3148 3148 3147 3147 3146 3146 3146 3146 3145 3145 3144 3144 3144
3132 3132 3132 3131 3131 3132 3132 3131 3132 3133 3134 3134 3134 3135 3136 3136 3137 3137 3137 3137 3138 3136 3133 3134 3136 3132 3130 3133 3136 3136 3137 3137 3138 3139 3139 3140 3141 3142 3142 3142 3142 3141 3141 3141 3140 3140 3140 3140 3141 3141 3142 3142 3142 3143 3143 3144 3144 3144 3145 3145 3145 3146 3146 3146 3147 3147 3147 3148 3148 3148 3148 3149 3149 3149 3148 3148 3148 3148 3148 3147 3147 3147 3146 3146 3146 3145
3131 3130 3130 3130 3130 3130 3130 3130 3131 3132 3132 3133 3134 3135 3136 3136 3137 3137 3136 3136 3136 3134 3132 3134 3136 3133 3131 3132 3134 3135 3136 3136 3136 3138 3138 3139 3140 3140 3141 3141 3141 3140 3140 3141 3140 3140 3140 3140 3141 3141 3142 3142 3142 3143 3143 3144 3144 3145 3145 3146 3146 3146 3146 3147 3147 3148 3148 3148 3148 3149 3149 3150 3150 3150 3150 3150 3150 3149 3149 3149 3148 3148 3148 3147 3147 3146
3130 3130 3129 3129 3129 3129 3130 3130 3131 3132 3132 3133 3134 3134 3135 3135 3135 3135 3135 3135 3132 3130 3132 3134 3135 3134 3132 3131 3133 3134 3135 3136 3136 3137 3137 3138 3139 3140 3140 3141 3141 3140 3140 3140 3140 3140 3140 3140 3141 3141 3142 3142 3142 3142 3143 3144 3144 3145 3146 3146 3146 3146 3147 3147 3148 3148 3148 3149 3149 3150 3150 3150 3150 3150 3150 3150 3150 3150 3150 3150 3150 3150 3149 3149 3148 3148
3129 3129 3128 3128 3129 3129 3130 3130 3131 3131 3132 3133 3134 3134 3132 3130 3132 3133 3131 3130 3129 3128 3132 3134 3134 3134 3132 3131 3133 3133 3134 3135 3136 3136 3136 3137 3138 3138 3139 3140 3140 3140 3140 3140 3140 3140 3140 3140 3140 3141 3141 3142 3142 3142 3143 3144 3144 3145 3146 3146 3146 3146 3147 3148 3148 3149 3149 3150 3150 3150 3151 3151 3151 3151 3151 3151 3151 3151 3151 3151 3151 3150 3150 3150 3149 3149
3128 3128 3128 3128 3128 3128 3129 3130 3131 3131 3131 3132 3132 3132 3130 3127 3131 3133 3129 3128 3128 3129 3132 3134 3133 3132 3130 3131 3132 3132 3134 3134 3134 3135 3136 3136 3137 3138 3138 3139 3139 3140 3140 3140 3140 3140 3140 3140 3140 3141 3141 3142 3142 3142 3143 3144 3144 3145 3145 3146 3146 3146 3147 3148 3148 3149 3150 3150 3150 3151 3151 3152 3152 3152 3152 3152 3152 3152 3152 3152 3152 3151 3151 3150 3150 3150
3127 3126 3126 3128 3128 3128 3128 3129 3130 3130 3131 3132 3132 3131 3130 3128 3130 3130 3128 3127 3128 3129 3131 3133 3132 3129 3127 3129 3131 3131 3132 3132 3133 3134 3134 3135 3136 3136 3138 3138 3138 3139 3139 3139 3140 3140 3140 3140 3140 3140 3141 3141 3142 3142 3143 3144 3144 3144 3145 3146 3146 3146 3147 3148 3148 3149 3150 3150 3151 3151 3152 3152 3152 3152 3152 3152 3153 3152 3152 3152 3152 3152 3152 3151 3151 3150
3127 3126 3126 3127 3126 3127 3128 3128 3129 3130 3130 3130 3131 3131 3130 3129 3129 3128 3128 3129 3130 3128 3129 3131 3130 3128 3127 3129 3130 3130 3131 3132 3132 3133 3134 3134 3134 3135 3136 3137 3138 3138 3138 3139 3139 3139 3139 3140 3140 3140 3140 3141 3142 3142 3142 3143 3144 3144 3145 3145 3146 3146 3147 3148 3148 3149 3150 3150 3151 3152 3152 3152 3152 3153 3153 3153 3153 3153 3153 3153 3153 3152 3152 3152 3152 3151
3126 3125 3125 3126 3126 3126 3127 3127 3128 3129 3129 3129 3130 3130 3129 3129 3130 3130 3129 3130 3130 3128 3128 3129 3128 3127 3128 3128 3129 3130 3131 3131 3132 3132 3134 3134 3134 3134 3135 3136 3137 3138 3138 3138 3138 3138 3139 3139 3139 3140 3140 3140 3141 3142 3142 3142 3143 3144 3144 3145 3146 3146 3147 3148 3148 3149 3150 3150 3151 3152 3152 3152 3153 3153 3153 3154 3154 3154 3153 3153 3153 3153 3152 3152 3152 3151
3125 3124 3124 3125 3126 3125 3126 3126 3126 3127 3128 3128 3128 3128 3128 3129 3130 3130 3128 3128 3128 3126 3126 3127 3126 3126 3126 3126 3128 3130 3130 3131 3132 3132 3133 3133 3134 3134 3135 3136 3136 3137 3137 3137 3138 3138 3138 3138 3139 3139 3140 3140 3140 3141 3142 3142 3142 3143 3144 3144 3145 3146 3146 3147 3148 3149 3150 3150 3151 3151 3152 3152 3153 3153 3154 3154 3154 3154 3154 3154 3153 3153 3153 3152 3152 3152
3124 3124 3123 3124 3124 3124 3124 3125 3126 3126 3127 3128 3127 3127 3128 3128 3127 3128 3129 3128 3126 3124 3124 3125 3125 3124 3124 3125 3127 3129 3130 3130 3131 3132 3132 3133 3133 3134 3134 3135 3135 3136 3136 3136 3136 3137 3137 3138 3138 3138 3139 3139 3140 3140 3141 3141 3142 3142 3143 3144 3144 3145 3146 3147 3148 3148 3149 3150 3150 3151 3152 3152 3153 3153 3154 3154 3154 3154 3154 3154 3154 3154 3153 3153 3152 3152
3124 3123 3122 3122 3123 3124 3124 3124 3125 3125 3126 3126 3126 3127 3128 3127 3126 3127 3128 3126 3124 3124 3123 3124 3123 3122 3122 3124 3126 3127 3128 3130 3130 3131 3132 3132 3133 3134 3134 3134 3134 3135 3135 3136 3136 3136 3136 3137 3137 3138 3138 3138 3139 3139 3140 3140 3141 3142 3143 3143 3144 3145 3146 3146 3147 3148 3149 3150 3150 3151 3152 3152 3153 3153 3154 3154 3154 3154 3154 3154 3154 3154 3154 3153 3152 3152
3122 3123 3121 3121 3122 3123 3123 3123 3123 3124 3125 3125 3126 3126 3127 3127 3127 3127 3126 3126 3125 3123 3122 3124 3123 3120 3122 3125 3126 3126 3128 3128 3129 3130 3131 3132 3132 3133 3134 3133 3134 3134 3134 3135 3135 3135 3136 3136 3136 3137 3138 3138 3138 3139 3139 3140 3140 3141 3142 3143 3144 3144 3145 3146 3147 3148 3148 3149 3150 3151 3152 3152 3152 3153 3153 3154 3154 3154 3154 3154 3154 3154 3153 3153 3152 3152
3121 3121 3121 3121 3121 3121 3120 3121 3122 3122 3123 3124 3124 3125 3125 3126 3126 3125 3124 3124 3126 3124 3122 3123 3123 3122 3122 3124 3125 3126 3127 3128 3129 3129 3130 3131 3132 3132 3132 3132 3132 3133 3134 3134 3134 3134 3134 3135 3136 3136 3136 3137 3138 3138 3139 3140 3140 3141 3142 3142 3143 3144 3144 3145 3146 3148 3148 3149 3150 3150 3151 3152 3152 3152 3153 3153 3154 3154 3154 3154 3154 3153 3153 3152 3152 3152
3119 3120 3120 3120 3119 3119 3119 3120 3120 3120 3122 3122 3122 3123 3124 3124 3125 3124 3122 3123 3124 3124 3124 3124 3123 3122 3123 3124 3124 3124 3125 3126 3128 3128 3129 3130 3130 3130 3131 3131 3132 3132 3132 3133 3133 3133 3134 3134 3134 3135 3136 3136 3137 3138 3138 3139 3140 3140 3141 3142 3142 3144 3144 3145 3146 3147 3148 3148 3149 3150 3151 3151 3152 3152 3152 3153 3153 3153 3153 3153 3153 3153 3152 3152 3152 3151
3117 3118 3118 3118 3118 3118 3118 3119 3120 3119 3120 3121 3122 3122 3122 3123 3124 3123 3122 3123 3123 3123 3123 3122 3122 3122 3122 3123 3123 3123 3124 3124 3125 3126 3128 3129 3129 3129 3130 3130 3131 3131 3132 3132 3132 3132 3133 3133 3134 3134 3134 3135 3136 3136 3137 3138 3139 3140 3140 3142 3142 3143 3144 3145 3146 3146 3147 3148 3148 3149 3150 3150 3151 3152 3152 3152 3152 3152 3153 3152 3152 3152 3152 3151 3151 3150
3115 3116 3116 3116 3116 3117 3117 3118 3118 3118 3119 3120 3120 3120 3120 3122 3122 3122 3123 3124 3122 3122 3122 3121 3120 3121 3122 3122 3123 3123 3123 3124 3124 3125 3126 3127 3127 3128 3128 3129 3130 3130 3131 3131 3132 3132 3132 3132 3133 3133 3134 3134 3135 3136 3136 3137 3138 3139 3140 3141 3142 3143 3144 3144 3144 3145 3146 3146 3148 3148 3149 3150 3150 3151 3151 3152 3152 3152 3152 3152 3152 3151 3151 3150 3150 3150
3113 3114 3114 3113 3113 3113 3113 3114 3116 3116 3118 3118 3118 3118 3119 3120 3121 3122 3122 3122 3121 3121 3122 3122 3120 3120 3122 3122 3122 3122 3122 3123 3124 3124 3124 3125 3126 3126 3127 3128 3128 3129 3130 3130 3130 3131 3131 3131 3132 3132 3133 3134 3134 3135 3136 3136 3137 3138 3139 3140 3140 3142 3142 3143 3144 3144 3145 3146 3147 3148 3148 3149 3150 3150 3150 3151 3151 3151 3151 3151 3151 3150 3150 3150 3149 3148
3111 3111 3112 3112 3112 3111 3110 3112 3114 3114 3116 3117 3116 3116 3118 3119 3119 3120 3121 3120 3119 3120 3120 3120 3120 3121 3121 3122 3122 3122 3122 3122 3122 3123 3124 3124 3124 3125 3126 3126 3128 3128 3128 3129 3130 3130 3130 3130 3131 3131 3132 3132 3133 3134 3134 3135 3136 3137 3138 3138 3139 3140 3141 3142 3142 3144 3144 3145 3146 3147 3148 3148 3148 3149 3150 3150 3150 3150 3150 3150 3150 3149 3149 3148 3148 3147
3109 3109 3109 3110 3111 3110 3109 3110 3112 3113 3114 3115 3115 3115 3116 3117 3118 3119 3120 3118 3119 3120 3118 3118 3120 3120 3120 3120 3120 3120 3120 3120 3120 3122 3122 3123 3124 3124 3124 3125 3126 3127 3128 3128 3128 3129 3129 3130 3130 3130 3131 3131 3132 3132 3134 3134 3135 3136 3136 3137 3138 3139 3140 3141 3142 3142 3143 3144 3145 3146 3146 3147 3147 3148 3148 3148 3149 3149 3149 3149 3148 3148 3148 3147 3146 3146
3108 3108 3108 3108 3109 3109 3109 3110 3110 3111 3112 3112 3114 3114 3114 3116 3116 3117 3118 3118 3119 3119 3118 3117 3119 3119 3119 3119 3119 3118 3118 3118 3118 3120 3121 3122 3122 3123 3123 3124 3125 3126 3126 3127 3127 3128 3128 3128 3129 3129 3130 3130 3131 3131 3132 3133 3134 3134 3135 3136 3137 3138 3139 3140 3140 3141 3142 3143 3144 3144 3145 3145 3146 3146 3147 3147 3147 3148 3148 3147 3147 3146 3146 3146 3145 3144
3106 3106 3106 3107 3108 3107 3108 3108 3109 3110 3110 3110 3112 3112 3113 3114 3115 3116 3116 3117 3117 3117 3117 3117 3118 3118 3118 3118 3117 3116 3116 3116 3117 3118 3119 3120 3121 3122 3122 3123 3124 3124 3125 3126 3126 3126 3127 3128 3128 3128 3128 3129 3130 3130 3131 3132 3132 3133 3134 3135 3136 3136 3138 3138 3139 3140 3141 3142 3142 3143 3143 3144 3144 3145 3145 3146 3146 3146 3146 3145 3145 3144 3144 3144 3143 3142
3104 3104 3104 3106 3106 3106 3106 3107 3108 3108 3109 3110 3110 3110 3112 3112 3113 3114 3114 3115 3115 3116 3116 3116 3116 3116 3116 3116 3115 3114 3114 3115 3116 3116 3118 3119 3120 3120 3121 3122 3122 3123 3124 3124 3125 3125 3126 3126 3126 3126 3127 3128 3128 3129 3130 3130 3131 3132 3132 3133 3134 3135 3136 3137 3138 3138 3139 3140 3140 3141 3141 3142 3142 3143 3143 3144 3144 3144 3143 3143 3143 3142 3142 3141 3140 3140
3102 3102 3102 3104 3104 3104 3104 3105 3106 3107 3108 3108 3108 3109 3110 3110 3111 3112 3113 3114 3114 3114 3115 3115 3115 3114 3114 3114 3114 3113 3113 3114 3115 3116 3117 3118 3118 3119 3120 3120 3121 3122 3123 3123 3124 3124 3124 3125 3125 3125 3126 3126 3126 3127 3128 3129 3130 3130 3131 3132 3133 3134 3134 3135 3136 3137 3138 3138 3138 3139 3140 3140 3140 3141 3141 3141 3142 3141 3141 3141 3140 3140 3139 3139 3138 3137
3101 3101 3101 3102 3102 3102 3102 3104 3104 3106 3106 3106 3107 3108 3108 3109 3110 3111 3112 3112 3113 3113 3114 3114 3114 3113 3113 3113 3113 3112 3112 3113 3114 3115 3116 3116 3117 3118 3118 3119 3120 3120 3121 3122 3122 3123 3123 3123 3124 3124 3124 3124 3124 3126 3126 3127 3128 3128 3129 3130 3131 3132 3132 3134 3134 3135 3136 3136 3136 3137 3137 3138 3138 3138 3139 3139 3139 3139 3139 3138 3138 3137 3137 3136 3135 3134
3100 3100 3100 3100 3100 3100 3101 3102 3104 3104 3104 3103 3104 3106 3107 3108 3108 3110 3110 3110 3110 3111 3112 3112 3112 3112 3112 3112 3112 3112 3112 3112 3112 3114 3114 3115 3116 3116 3117 3118 3118 3119 3120 3120 3121 3121 3122 3122 3122 3122 3123 3122 3123 3124 3124 3125 3126 3127 3128 3128 3129 3130 3130 3132 3132 3133 3134 3134 3134 3135 3135 3136 3136 3136 3136 3136 3136 3136 3136 3136 3135 3134 3134 3133 3132 3131
3098 3098 3099 3099 3099 3100 3100 3101 3102 3102 3100 3101 3103 3104 3105 3106 3106 3108 3108 3107 3107 3108 3108 3108 3109 3109 3109 3109 3110 3111 3111 3111 3111 3112 3112 3113 3114 3114 3115 3116 3117 3118 3118 3119 3119 3120 3120 3120 3120 3120 3121 3121 3121 3122 3122 3123 3124 3125 3126 3126 3126 3127 3128 3130 3130 3131 3131 3132 3132 3132 3133 3133 3134 3134 3134 3134 3134 3134 3133 3132 3132 3132 3130 3130 3129 3128
3096 3098 3098 3098 3097 3098 3098 3099 3099 3099 3098 3100 3102 3102 3103 3104 3104 3105 3105 3105 3105 3105 3105 3106 3106 3106 3106 3107 3108 3109 3109 3110 3110 3110 3110 3110 3111 3112 3113 3114 3114 3115 3116 3117 3118 3118 3118 3118 3118 3119 3119 3120 3119 3120 3120 3121 3122 3122 3123 3124 3124 3125 3126 3127 3128 3128 3129 3129 3130 3130 3131 3131 3131 3131 3131 3131 3131 3131 3130 3130 3129 3128 3127 3126 3125 3124
3094 3096 3096 3096 3095 3096 3097 3096 3096 3097 3098 3099 3100 3100 3101 3102 3102 3103 3103 3102 3103 3103 3103 3103 3103 3104 3104 3105 3106 3106 3107 3108 3108 3108 3108 3109 3109 3109 3110 3111 3112 3112 3113 3114 3114 3115 3115 3115 3116 3116 3117 3117 3117 3118 3118 3119 3120 3120 3121 3122 3122 3123 3124 3125 3125 3126 3126 3127 3128 3128 3128 3128 3128 3129 3128 3128 3128 3128 3127 3126 3126 3124 3123 3122 3121 3119
3091 3092 3094 3094 3094 3094 3096 3095 3093 3094 3096 3098 3098 3098 3099 3100 3100 3101 3101 3100 3100 3100 3100 3100 3101 3102 3102 3103 3104 3104 3105 3106 3107 3106 3106 3106 3106 3106 3107 3108 3109 3110 3110 3111 3112 3112 3112 3112 3113 3114 3114 3115 3115 3116 3116 3117 3118 3119 3119 3120 3120 3122 3122 3122 3123 3124 3125 3126 3126 3126 3126 3126 3126 3126 3126 3126 3125 3124 3124 3123 3122 3120 3118 3117 3116 3115
3089 3090 3091 3094 3094 3094 3095 3094 3091 3092 3094 3095 3095 3096 3097 3098 3098 3099 3099 3098 3098 3098 3099 3099 3099 3100 3100 3101 3102 3102 3103 3104 3104 3104 3104 3104 3104 3104 3104 3105 3106 3107 3108 3108 3109 3110 3110 3110 3110 3110 3112 3112 3113 3114 3114 3115 3116 3117 3117 3118 3119 3120 3120 3121 3122 3122 3123 3123 3124 3124 3124 3124 3123 3123 3123 3122 3121 3120 3120 3118 3116 3115 3114 3113 3112 3111
3087 3088 3090 3091 3091 3092 3094 3094 3093 3093 3093 3093 3093 3094 3095 3096 3096 3097 3096 3095 3096 3097 3097 3097 3098 3098 3098 3099 3100 3100 3100 3101 3101 3101 3102 3102 3102 3102 3102 3102 3104 3104 3105 3106 3107 3107 3108 3108 3108 3108 3108 3109 3110 3111 3112 3113 3114 3115 3116 3116 3117 3118 3118 3119 3119 3120 3119 3120 3120 3120 3120 3120 3120 3119 3119 3117 3116 3115 3114 3112 3111 3110 3109 3108 3107 3106
3085 3086 3086 3087 3087 3088 3091 3093 3094 3093 3092 3092 3092 3093 3094 3095 3095 3094 3093 3092 3093 3094 3095 3095 3096 3096 3097 3097 3097 3097 3098 3098 3098 3098 3100 3100 3100 3100 3100 3100 3101 3102 3102 3103 3104 3105 3105 3106 3106 3106 3106 3106 3107 3108 3109 3110 3111 3112 3112 3113 3114 3114 3114 3114 3115 3115 3115 3116 3116 3116 3116 3116 3115 3114 3114 3112 3111 3110 3109 3108 3107 3106 3105 3104 3102 3102
3084 3083 3083 3084 3085 3085 3087 3090 3092 3090 3089 3091 3092 3092 3093 3094 3093 3091 3090 3091 3091 3092 3092 3093 3094 3094 3094 3095 3095 3095 3096 3096 3096 3096 3097 3098 3098 3098 3098 3098 3099 3100 3100 3101 3102 3102 3103 3103 3103 3103 3104 3104 3104 3105 3106 3107 3108 3108 3108 3109 3109 3110 3110 3110 3111 3111 3112 3112 3111 3110 3110 3110 3110 3109 3109 3108 3106 3106 3105 3104 3103 3102 3100 3099 3099 3099
3083 3082 3082 3082 3083 3083 3084 3086 3086 3084 3084 3088 3090 3090 3092 3094 3091 3089 3089 3090 3089 3090 3090 3090 3091 3092 3092 3092 3092 3093 3093 3093 3094 3094 3094 3094 3095 3095 3095 3096 3096 3097 3098 3098 3099 3100 3100 3100 3100 3101 3102 3102 3102 3103 3104 3104 3104 3104 3105 3105 3106 3106 3107 3107 3107 3107 3107 3107 3106 3104 3104 3103 3103 3104 3104 3104 3102 3101 3100 3099 3098 3097 3096 3095 3095 3096
3081 3082 3082 3082 3082 3082 3082 3082 3081 3079 3080 3084 3086 3087 3089 3090 3089 3088 3088 3087 3087 3088 3088 3088 3088 3089 3090 3090 3090 3090 3090 3090 3091 3091 3091 3091 3092 3092 3092 3093 3093 3094 3094 3095 3096 3096 3096 3097 3097 3098 3098 3098 3100 3100 3101 3101 3102 3101 3101 3101 3102 3102 3102 3102 3102 3102 3102 3102 3101 3100 3100 3098 3098 3098 3099 3098 3097 3097 3096 3094 3093 3093 3092 3092 3092 3091
3078 3079 3080 3080 3080 3080 3081 3079 3078 3078 3079 3081 3082 3083 3084 3085 3085 3085 3085 3084 3084 3085 3084 3085 3085 3086 3087 3087 3087 3087 3088 3088 3088 3088 3088 3088 3088 3088 3088 3089 3090 3090 3091 3091 3091 3092 3092 3093 3093 3094 3094 3094 3095 3096 3096 3098 3098 3098 3098 3098 3098 3098 3098 3098 3098 3097 3097 3097 3096 3096 3095 3094 3093 3094 3093 3092 3092 3091 3091 3090 3090 3089 3088 3088 3088 3088
3077 3078 3078 3079 3079 3079 3079 3078 3077 3077 3077 3078 3079 3080 3080 3080 3080 3081 3081 3081 3081 3082 3082 3082 3083 3084 3084 3085 3085 3084 3084 3084 3085 3085 3086 3086 3086 3086 3086 3086 3086 3086 3086 3087 3087 3088 3088 3088 3088 3088 3088 3089 3090 3090 3090 3090 3092 3093 3094 3094 3094 3094 3094 3093 3093 3092 3092 3092 3092 3091 3090 3088 3088 3088 3088 3087 3086 3086 3086 3087 3085 3084 3085 3086 3086 3085
3076 3076 3076 3077 3077 3077 3077 3076 3075 3076 3076 3077 3078 3078 3078 3077 3076 3076 3077 3078 3078 3078 3079 3079 3080 3081 3082 3082 3082 3082 3082 3082 3082 3083 3083 3084 3084 3084 3083 3083 3083 3083 3083 3083 3083 3084 3084 3085 3084 3084 3084 3085 3086 3086 3086 3086 3088 3088 3088 3088 3089 3089 3089 3089 3088 3087 3087 3087 3086 3085 3084 3083 3082 3082 3082 3082 3082 3082 3082 3082 3082 3081 3082 3082 3082 3081
3075 3075 3075 3074 3074 3074 3074 3074 3073 3074 3075 3076 3076 3076 3076 3076 3075 3074 3074 3075 3075 3076 3076 3077 3077 3078 3078 3079 3079 3078 3079 3080 3080 3080 3081 3082 3082 3082 3082 3082 3082 3082 3081 3081 3080 3080 3081 3081 3081 3081 3082 3083 3084 3084 3083 3084 3086 3086 3085 3084 3085 3085 3084 3084 3083 3082 3082 3082 3081 3080 3079 3078 3078 3078 3078 3078 3078 3078 3079 3079 3079 3079 3078 3078 3078 3078
3073 3074 3074 3074 3073 3072 3072 3072 3072 3072 3073 3074 3074 3073 3074 3074 3074 3073 3072 3073 3073 3074 3074 3075 3076 3076 3076 3077 3077 3076 3077 3077 3078 3078 3078 3079 3079 3079 3080 3080 3080 3080 3080 3080 3079 3078 3078 3078 3078 3078 3078 3080 3081 3082 3082 3082 3083 3084 3082 3081 3081 3080 3079 3078 3078 3077 3076 3076 3076 3075 3074 3074 3074 3074 3074 3074 3076 3076 3076 3076 3076 3075 3075 3074 3074 3074
3072 3072 3073 3073 3072 3072 3072 3072 3072 3072 3072 3072 3071 3071 3072 3073 3072 3072 3071 3070 3071 3072 3073 3074 3074 3075 3075 3075 3076 3075 3076 3076 3076 3076 3076 3076 3076 3076 3076 3076 3077 3077 3077 3077 3076 3076 3075 3075 3074 3074 3075 3075 3077 3079 3079 3079 3079 3078 3078 3076 3076 3075 3074 3074 3073 3073 3072 3072 3071 3071 3071 3070 3070 3071 3071 3072 3073 3074 3073 3073 3072 3072 3071 3071 3070 3070
3070 3071 3071 3071 3071 3072 3072 3072 3072 3072 3072 3072 3071 3071 3072 3072 3071 3071 3071 3070 3071 3072 3072 3073 3074 3074 3074 3074 3074 3074 3074 3074 3074 3074 3075 3074 3074 3074 3074 3074 3074 3074 3074 3074 3073 3073 3072 3072 3072 3071 3071 3071 3072 3074 3074 3074 3074 3073 3072 3072 3071 3070 3070 3070 3069 3069 3069 3069 3068 3068 3068 3067 3067 3068 3069 3070 3070 3070 3069 3068 3068 3067 3067 3067 3066 3066